Regional Weather Roundup
Issued by NWS

Home | Current Version | Previous Version | Text Only | Print | Product List | Glossary On
Versions: 1 2 3 4 5 6 7 8 9 10 11 12 13 14 15 16 17 18 19 20 21 22 23 24 25 26 27
000
ASUS45 KCYS 302310
RWRWY

WYOMING REGIONAL WEATHER ROUNDUP
NATIONAL WEATHER SERVICE CHEYENNE WY
500 PM MDT FRI SEP 30 2016

NOTE:  "FAIR" INDICATES FEW OR NO CLOUDS BELOW 12,000 FEET
WITH NO SIGNIFICANT WEATHER AND/OR OBSTRUCTIONS TO VISIBILITY.

WYZ001-010000-
YELLOWSTONE NATIONAL PARK

CITY           SKY/WX    TMP DP  RH WIND       PRES   REMARKS
LK YELLOWSTONE   N/A     50  50 100 CALM      30.31S
W YELLOWSTONE  NOT AVBL

$$
WYZ002>013-054>058-071-098>099-010000-
NORTHERN WYOMING

CITY           SKY/WX    TMP DP  RH WIND       PRES   REMARKS
JACKSON        MOSUNNY   61  46  59 W9        30.23S
CODY           FAIR      73  46  38 SE8       30.10S
GREYBULL       FAIR      78  45  30 SW6       30.03S
WORLAND        FAIR      77  43  29 NE5       30.05F
SHERIDAN       FAIR      77  52  41 SW9       30.04S
BUFFALO        FAIR      74  44  34 NW3       30.11S
GILLETTE       FAIR      76  48  37 NE3       30.05S
HULETT         FAIR      77  45  31 NW5       30.06S
NEWCASTLE      FAIR      75  43  31 SE15      30.07S

$$
WYZ014>020-022>026-101>103-010000-
CENTRAL WYOMING

CITY           SKY/WX    TMP DP  RH WIND       PRES   REMARKS
BIG PINEY      FAIR      64  38  38 SW6       30.26F
PINEDALE       MOCLDY    63  34  34 W9        30.27S
DUBOIS         FAIR      64  32  29 NW10      30.22S
LANDER         FAIR      69  45  41 S7        30.12F
RIVERTON       FAIR      75  42  30 E7        30.12F
CASPER         FAIR      75  40  28 NW10      30.12R
DOUGLAS        CLOUDY    73  46  38 SE13      30.11R

$$
WYZ021-027>030-104>119-010000-
SOUTHERN WYOMING

CITY           SKY/WX    TMP DP  RH WIND       PRES   REMARKS
EVANSTON       CLOUDY    66  40  38 NE5       30.27F
FORT BRIDGER   FAIR      68  40  36 SW14G25   30.30R
ROCK SPRINGS   PTSUNNY   66  39  37 N6        30.23S
DIXON          MOCLDY    65  40  40 N9        30.29S
RAWLINS        FAIR      69  39  33 SW14      30.24S
SARATOGA       FAIR      63  36  36 W13       30.27R
LARAMIE        CLOUDY    64  39  39 N9        30.26R
CHEYENNE       PTSUNNY   67  45  45 NE6       30.20S
TORRINGTON     FAIR      71  49  45 SE10      30.08F
PINE BLUFFS    FAIR      70  41  35 SE7       30.17S

$$




USA.gov is the U.S. government's official web portal to all federal, state and local government web resources and services.